Regional Weather Roundup
Issued by NWS San Diego, CA

Home | Current Version | Previous Version | Text Only | Print | Product List | Glossary On
Versions: 1 2 3 4 5 6 7 8 9 10 11 12 13 14 15 16 17 18 19 20 21 22 23 24 25 26 27 28 29 30 31 32 33 34 35 36 37 38 39 40 41 42 43 44 45 46 47 48 49 50
000
ASUS46 KSGX 250810
RWRSGX

SAN DIEGO HOURLY WEATHER ROUNDUP
NATIONAL WEATHER SERVICE SAN DIEGO CA
100 AM PDT FRI APR 25 2014

NOTE: "FAIR" INDICATES FEW OR NO CLOUDS BELOW 12,000 FEET WITH NO
SIGNIFICANT WEATHER AND/OR OBSTRUCTIONS TO VISIBILITY.

CAZ042-043-060-061-PZZ750-775-250900-

GREATER SAN DIEGO AREA

CITY           SKY/WX    TMP DP  RH WIND       PRES   REMARKS
LINDBERGH FLD  PTCLDY    62  53  72 S8        29.96F
NATIONAL CITY    N/A     60  54  80 CALM      29.95F
CHULA VISTA      N/A     57  53  89 CALM      29.89F
IMPERIAL BEACH CLEAR     55  52  89 SE5       29.95F
BROWN FIELD    CLEAR     54  52  93 E3        29.94F
MIRAMAR MCAS   PTCLDY    53  50  89 SE3       29.94F
MONTGOMERY FLD CLEAR     57  53  86 SE3       29.95F

$$

NORTH SAN DIEGO COUNTY

CITY           SKY/WX    TMP DP  RH WIND       PRES   REMARKS
CAMP PENDLETON PTCLDY    52  48  86 CALM      29.94F FOG
RED BEACH      FAIR      58  52  80 E6        29.93F
OCEANSIDE AP   PTCLDY    52  50  93 CALM      29.94S
VISTA            N/A     53  50  89 CALM      29.93R
CARLSBAD       PTCLDY    58  53  84 CALM      29.94R
DEL MAR          N/A     56  54  91 CALM      29.96S
LA JOLLA SCRIP   N/A     58  55  89 CALM      29.92S
FALLBROOK        N/A     56  56 100 CALM      29.95S
ESCONDIDO        N/A     57  52  84 E2        29.95F
SAN MARCOS       N/A     56  51  83 E3        29.92F
POWAY            N/A     53  49  86 CALM      29.95F
R. PENASQUITOS   N/A     57  54  89 CALM      29.94F

$$

EAST SAN DIEGO COUNTY

CITY           SKY/WX    TMP DP  RH WIND       PRES   REMARKS
RAMONA         PTCLDY    47  43  86 SE3       29.95F
GILLESPIE FLD  FAIR      54  52  94 CALM      29.96F
LA MESA          N/A     57  55  90 CALM      29.89F
JAMUL            N/A     50  48  92 CALM      29.93F
DESCANSO N       N/A     45  38  76 E2        29.83S
MT. LAGUNA OBS   N/A     47  19  31 SW3       29.63
CAMPO            N/A     42  36  79 NE6       29.93F

$$

ORANGE COUNTY AND THE LOS ANGELES BASIN

CITY           SKY/WX    TMP DP  RH WIND       PRES   REMARKS
JOHN WAYNE AP  CLEAR     62  46  55 S3        29.91F
LAGUNA BEACH     N/A     55  51  87 CALM      29.89F
LAKE FOREST FR   N/A     56  45  67 CALM      29.82F
SANTA ANA        N/A     60  54  80 CALM      29.87F
HUNTINGTON BCH   N/A     61  58  91 SE8       29.92
LOS ALAMITOS   FAIR      60  55  85 SE2       29.92F
FULLERTON      CLEAR     62  51  67 CALM      29.91F
LONG BEACH     PTCLDY    61  54  77 S3        29.92F
L.A. AP        PTCLDY    62  54  74 VRB6      29.93S
L.A. DOWNTOWN  PTCLDY    60  52  74 CALM      29.92F

$$

THE INLAND EMPIRE

CITY           SKY/WX    TMP DP  RH WIND       PRES   REMARKS
CORONA         CLEAR     50  43  77 CALM        N/A
CHINO          CLEAR     57  49  74 NE3       29.93F
ONTARIO        CLEAR     60  46  59 CALM      29.92F
RIVERSIDE AP   CLEAR     59  44  57 CALM      29.92F
RIV CYN CREST    N/A     61  51  70 S2        29.92S
MORENO VALLEY    N/A     57  47  69 CALM      28.04S
MARCH ARB      PTCLDY    53  49  86 SE8       29.94F
HORSETHIEF CYN   N/A     56  45  68 SE7       29.93F
PERRIS           N/A     55  51  88 S2          N/A
MENIFEE          N/A     56  54  91 CALM      30.01S
HEMET EAST       N/A     54  38  54 CALM      29.94S
FRENCH VALLEY  NOT AVBL
TEMECULA         N/A     56  47  74 CALM      29.93S

$$

SAN BERNARDINO AND RIVERSIDE COUNTY MOUNTAINS

CITY           SKY/WX    TMP DP  RH WIND       PRES   REMARKS
BIG BEAR AP    PTCLDY    41  32  70 SW5       30.06F
BIG BEAR SHEA    N/A     35  23  61 S1        29.92F
ANGELUS OAKS     N/A     44  34  68 MISG      29.83F
PINE COVE        N/A     45  23  42 NW2       29.88F

$$

SOUTHERN DESERT INCLUDING THE COACHELLA VALLEY

CITY           SKY/WX    TMP DP  RH WIND       PRES   REMARKS
PALM SPRINGS   PTCLDY    73  40  30 W9        29.81S
THOUSAND PALMS   N/A     72  38  29 N10       29.78S
PALM DESERT      N/A     71  46  41 CALM      31.12S
THERMAL        PTCLDY    74  43  32 NW15      29.76F
BLYTHE         CLEAR     76  24  14 S15       29.79F
IMPERIAL AP    PTCLDY    66  42  41 W6        29.78F
EL CENTRO NAS  PTCLDY    72  36  26 W16       29.78S
YUMA AZ        PTCLDY    70  37  29 SE9       29.79F

$$

UPPER DESERT

CITY           SKY/WX    TMP DP  RH WIND       PRES   REMARKS
VICTORVILLE AP PTCLDY    55  32  41 S9        29.92F
HESPERIA         N/A     55  37  51 NW1       29.99F
APPLE VALLEY     N/A     57  34  41 CALM      30.01F
GRAY BUTTE AP  NOT AVBL
PALMDALE       PTCLDY    60  32  34 SW8G18    29.92F
LANCASTER      PTCLDY    60  36  40 W15       29.90F
EDWARDS AFB    PTCLDY    59  35  41 W12       29.88F
DAGGETT        PTCLDY    69  30  23 SW12      29.85F
29 PALMS N     PTCLDY    67  37  33 W12       29.92S
NEEDLES        PTCLDY    75  10   8 W6        29.78S

$$

REGIONAL REPORTS

CITY           SKY/WX    TMP DP  RH WIND       PRES   REMARKS
SANTA BARBARA  CLEAR     58  50  75 E6        29.89R
SANDBERG       CLEAR     54  35  48 NW18      29.99F
MT. WILSON       N/A     46  27  46 S5          N/A
LAS VEGAS NV   PTCLDY    73  12   9 S16G24    29.75S
PHOENIX AZ     PTCLDY    78  20  11 CALM      29.83F
TIJUANA        CLEAR     57  52  82 E3        29.99S
ENSENADA NW      N/A     59  32  35 CALM      29.94F

$$

OFFSHORE ISLANDS

CITY           SKY/WX    TMP DP  RH WIND       PRES   REMARKS
CATALINA ARPT  CLEAR     58  34  40 S12       29.93F
SAN NICOLAS IS CLEAR    N/A N/A N/A W22       29.91S

$$

MARINE AND OFFSHORE BUOY REPORTS

STATION/POSITION SKY/WX   TEMP    WIND        PRES    SWELL
                          AIR SEA DIR/SP/G            HT/PER/DIR
                          (F)     (DEG/KT/KT) (MB)    (FT/S/D)
S CLEMENTE BASIN           61 63  250/  6/  8 1013.8F   5/260/11
SAN NICOLAS IS.               57                N/A     5/300/12
SO. S. ROSA ISLA           56 55  320/ 23/ 27 1013.5R   3/11
W. S. BARBARA CH           54 54  320/ 25/ 29 1012.8S   5/310/11
S. MONICA BASIN            60 61  140/  8/ 10 1012.2S   3/270/ 8
S PEDRO CHANNEL               63                N/A     2/260/13
DANA POINT                    63                N/A     2/190/13
CMP PENDLETON NS              64                N/A     2/220/13
OCEANSIDE OFFSHR              65                N/A     2/180/14
TORREY PINES OTR              64                N/A     2/270/12
LA JOLLA 1                 60 64  180/  5/  6 1014.0S
MISSION BAY BUOY              63                N/A     3/270/13
SAN DIEGO BAY                 67              1014.3F
POINT LOMA SOUTH              65                N/A     3/260/12

$$




USA.gov is the U.S. government's official web portal to all federal, state and local government web resources and services.